FW6216 Weather Reports


Display with metric or nautical units.
time (UTC)temp
F
wind
direction
speed
MPH
gust
MPH
rain 1hr
in
rain 24hr
in
rain mn
in
humidity
%
barometer
mb
20260510070035 53 162 2.0 4.0 0.00 0.00 0.00 53 1019.0
20260510064650 53 184 0.0 4.0 0.00 0.00 0.00 52 1019.0
20260510063037 53 165 3.0 7.0 0.00 0.00 0.00 52 1019.0
20260510061607 53 216 2.0 6.0 0.00 0.00 0.00 51 1018.9
20260510051535 59 220 1.0 3.0 0.00 0.00 0.00 42 1018.7
20260510044530 61 176 1.0 4.0 0.00 0.00 0.00 40 1018.8
20260510043032 61 232 2.0 4.0 0.00 0.00 0.00 39 1018.8
20260510041530 62 247 3.0 5.0 0.00 0.00 0.00 38 1018.7
20260510040040 63 241 3.0 5.0 0.00 0.00 0.00 37 1018.4
20260510034529 64 124 0.0 2.0 0.00 0.00 0.00 37 1018.3
20260510031534 65 250 3.0 5.0 0.00 0.00 0.00 37 1018.3
20260510030031 65 259 2.0 4.0 0.00 0.00 0.00 38 1018.2
20260510024532 66 348 0.0 3.0 0.00 0.00 0.00 37 1018.2
20260510021535 69 13 3.0 5.0 0.00 0.00 0.00 35 1018.2
20260510014531 72 359 4.0 7.0 0.00 0.00 0.00 32 1018.3
20260510013030 72 350 5.0 9.0 0.00 0.00 0.00 32 1018.4
20260510011608 73 6 6.0 11.0 0.00 0.00 0.00 32 1018.4
20260510004535 74 8 5.0 11.0 0.00 0.00 0.00 32 1018.5
20260510003036 74 358 6.0 13.0 0.00 0.00 0.00 32 1018.5
20260510000034 75 3 6.0 11.0 0.00 0.00 0.00 33 1018.9
20260509234609 76 12 6.0 14.0 0.00 0.00 0.00 33 1019.0
20260509233035 76 14 6.0 13.0 0.00 0.00 0.00 33 1019.1
20260509231530 76 23 7.0 15.0 0.00 0.00 0.00 34 1019.3
20260509230033 76 9 5.0 11.0 0.00 0.00 0.00 34 1019.6
20260509224531 75 6 5.0 12.0 0.00 0.00 0.00 34 1019.7
20260509221536 75 11 5.0 13.0 0.00 0.00 0.00 36 1020.2
20260509220036 75 29 5.0 12.0 0.00 0.00 0.00 37 1020.4
20260509214534 74 27 5.0 12.0 0.00 0.00 0.00 37 1020.5
20260509211533 74 19 6.0 12.0 0.00 0.00 0.00 39 1021.0
20260509210032 73 35 4.0 11.0 0.00 0.00 0.00 40 1021.2
20260509204607 0 0 0.0 0.0 0.00 0.00 0.00 100
20260509203036 74 359 5.0 10.0 0.00 0.00 0.00 41 1021.5
20260509201608 74 5 5.0 11.0 0.00 0.00 0.00 42 1021.7
20260509200035 73 23 6.0 12.0 0.00 0.00 0.00 43 1021.9
20260509194528 72 31 5.0 9.0 0.00 0.00 0.00 43 1022.1
20260509193036 72 21 6.0 12.0 0.00 0.00 0.00 43 1022.3
20260509191642 72 26 5.0 11.0 0.00 0.00 0.00 43 1022.4
20260509190110 72 27 5.0 12.0 0.00 0.00 0.00 44 1022.6
20260509184536 72 30 5.0 11.0 0.00 0.00 0.00 46 1022.7
20260509183034 70 14 5.0 11.0 0.00 0.00 0.00 48 1022.9
20260509181609 68 19 4.0 12.0 0.00 0.00 0.00 50 1022.9
20260509180034 66 9 5.0 10.0 0.00 0.00 0.00 51 1023.0
20260509174652 65 5 4.0 9.0 0.00 0.00 0.00 53 1023.0
20260509173031 65 10 5.0 11.0 0.00 0.00 0.00 53 1023.1
20260509170050 65 29 5.0 9.0 0.00 0.00 0.00 53 1023.3
20260509164533 66 21 4.0 8.0 0.00 0.00 0.00 54 1023.5
20260509163033 64 14 5.0 10.0 0.00 0.00 0.00 57 1023.6
20260509161533 62 20 4.0 8.0 0.00 0.00 0.00 60 1023.7
20260509160030 59 346 1.0 6.0 0.00 0.00 0.00 62 1023.7
20260509154611 59 18 2.0 5.0 0.00 0.00 0.00 61 1023.6
20260509153033 60 2 2.0 4.0 0.00 0.00 0.00 62 1023.6
20260509150030 58 3 0.0 1.0 0.00 0.00 0.00 67 1023.8
20260509144533 56 14 1.0 3.0 0.00 0.00 0.00 72 1023.8
20260509143046 53 13 0.0 3.0 0.00 0.00 0.00 78 1023.8
20260509141533 50 250 0.0 1.0 0.00 0.00 0.00 83 1023.7
20260509134535 42 242 0.0 2.0 0.00 0.00 0.00 86 1023.8
20260509133034 41 215 0.0 3.0 0.00 0.00 0.00 86 1023.6
20260509131535 40 229 2.0 4.0 0.00 0.00 0.00 86 1023.4
20260509130030 40 251 2.0 4.0 0.00 0.00 0.00 85 1023.3
20260509121531 41 180 0.0 3.0 0.00 0.00 0.00 83 1023.3
20260509120035 43 260 1.0 3.0 0.00 0.00 0.00 81 1023.3
20260509113032 44 209 3.0 6.0 0.00 0.00 0.00 81 1023.2
20260509111531 43 204 4.0 8.0 0.00 0.00 0.00 81 1023.2
20260509110110 43 204 4.0 7.0 0.00 0.00 0.00 81 1023.3
20260509104643 43 209 4.0 7.0 0.00 0.00 0.00 81 1023.2
20260509103110 42 198 3.0 7.0 0.00 0.00 0.00 80 1023.3
20260509100033 43 210 4.0 5.0 0.00 0.00 0.00 77 1023.3
20260509094530 45 231 3.0 6.0 0.00 0.00 0.00 76 1023.4
20260509093029 46 224 4.0 6.0 0.00 0.00 0.00 74 1023.4
20260509091530 47 198 4.0 8.0 0.00 0.00 0.00 72 1023.5
20260509090030 48 188 4.0 8.0 0.00 0.00 0.00 72 1023.6
20260509084532 48 181 6.0 9.0 0.00 0.00 0.00 72 1023.8
20260509081530 48 165 4.0 7.0 0.00 0.00 0.00 70 1024.0
20260509080110 50 206 4.0 6.0 0.00 0.00 0.00 68 1024.1
20260509073032 51 168 4.0 7.0 0.00 0.00 0.00 66 1024.1